Weather in Khanymey

Russia / Yamalo-Nenets Autonomous Okrug     63°43′25″N   75°57′41″E
temp.,
°C
wind,
m/s
gust,
m/s
humid.,
%
clouds,
%
prec.,
mm/h
press.,
hPa
HPBL,
m
27 february, sat
sat2723:00−24sw339895 0.1 102468
02:00−23wsw469899 0.1 1023112
05:00−23w359898 0.1 102477
08:00−23wnw349898 0.1 102392
11:00−22wnw359694 0.1 1024294
14:00−21nw459498 0.1 1024358
17:00−25nw339897 0.1 102520
20:00−26nw1210089 0.0 102519
28 february, sun
sun2823:00−28w1110093 0.1 102619
02:00−27wsw2210098 0.0 102619
05:00−27wsw2210098 0.1 102719
08:00−28sw229993 0.0 102719
11:00−24sw239280 0.0 1027162
14:00−22ssw238826 0.0 1027270
17:00−25s229521 0.0 102720
20:00−27s33950 0.0 102719
1 march, mon
mon123:00−28s33930 0.0 102719
02:00−29s33940 0.0 102619
05:00−29sse33980 0.0 102619
08:00−29sse34970 0.0 102523
11:00−24sse34920 0.0 1025191
14:00−21sse45911 0.0 1023260
17:00−24sse44932 0.0 102323
20:00−26s459119 0.0 102237
2 march, tue
tue223:00−27s559140 0.0 102148
02:00−27s569315 0.0 102162
05:00−28s56929 0.0 102171
08:00−27s69920 0.0 1020145
11:00−22s710898 0.0 1020276
14:00−20s7108719 0.0 1019323
17:00−23sse699020 0.0 1018132
20:00−24sse6109169 0.0 1018149
3 march, wed
wed323:00−25sse6109175 0.0 1018156
02:00−26s6109452 0.0 1017148
05:00−26s6109446 0.0 1017142
08:00−26sse7129484 0.0 1017214
11:00−21s7129274 0.0 1016347
14:00−19s8119178 0.0 1016393
17:00−20sse7139388 0.0 1015278
20:00−21sse8159493 0.0 1015305